Weather History for Vancouver, WA

Change the Weather History Date:

Thursday, April 10, 2014

  Actual Average Record
Temperature  
Mean Temperature 54 °F 51 °F  
Max Temperature 66 °F 60 °F 82 °F (1904)
Min Temperature 42 °F 42 °F 30 °F (1903)
Degree Days  
Heating Degree Days 11    
Month to date heating degree days 117  
Since 1 July heating degree days 4099  
Cooling Degree Days 0    
Month to date cooling degree days 0  
Year to date cooling degree days 0  
Growing Degree Days 4 (Base 50)    
Moisture  
Dew Point 37 °F    
Average Humidity 50    
Maximum Humidity 76    
Minimum Humidity 24    
Precipitation  
Precipitation 0.00 in 0.10 in 0.73 in (1993)
Month to date precipitation 0.79 1.02  
Year to date precipitation 14.20 14.12  
Sea Level Pressure  
Sea Level Pressure 30.20 in    
Wind  
Wind Speed 5 mph (NNW)    
Max Wind Speed 13 mph    
Max Gust Speed 19 mph    
Visibility 10 miles    
Events      
T = Trace of Precipitation, MM = Missing Value Source: NWS Daily Summary

Daily Weather History Graph

Daily Weather History Graph

Search for Another Location

Airport:

Trip Planner

Search our weather history database for the weather conditions in past years. The results will help you decide how hot, cold, wet, or windy it might be!

Date:

Astronomy

Apr. 10, 2014 Rise Set
Actual Time 6:33 AM PDT 7:50 PM PDT
Civil Twilight 6:03 AM PDT 8:21 PM PDT
Nautical Twilight 5:26 AM PDT 8:58 PM PDT
Astronomical Twilight 4:47 AM PDT 9:37 PM PDT
Moon 3:27 PM PDT (4/10) 4:12 AM PDT (4/10)
Length of Visible Light 14h 18m
Length of Day
13h 16m
Waxing Gibbous, 80% of the Moon is Illuminated
Apr 10
Waxing Gibbous
Apr 15
Full
Apr 22
Last Quarter
Apr 28
New
May 6
First Quarter

Hourly Weather History & Observations

Time (PDT) Temp. Windchill Dew Point Humidity Pressure Visibility Wind Dir Wind Speed Gust Speed Precip Events Conditions
12:53 AM 48.0 °F - 37.9 °F 68% 30.23 in 10.0 mi NNW 5.8 mph - N/A   Clear
1:53 AM 46.9 °F - 37.9 °F 71% 30.24 in 10.0 mi WNW 6.9 mph - N/A   Clear
2:53 AM 46.0 °F 43.9 °F 37.0 °F 71% 30.23 in 10.0 mi NNW 4.6 mph - N/A   Clear
3:53 AM 46.0 °F 42.5 °F 37.0 °F 71% 30.24 in 10.0 mi North 6.9 mph - N/A   Clear
4:53 AM 45.0 °F 43.5 °F 36.0 °F 71% 30.25 in 10.0 mi Variable 3.5 mph - N/A   Clear
5:53 AM 42.1 °F - 36.0 °F 79% 30.24 in 10.0 mi Calm Calm - N/A   Clear
7:53 AM 45.0 °F - 37.0 °F 74% 30.26 in 10.0 mi Calm Calm - N/A   Clear
8:53 AM 46.9 °F - 37.9 °F 71% 30.26 in 10.0 mi Calm Calm - N/A   Clear
9:53 AM 48.9 °F - 37.0 °F 64% 30.26 in 10.0 mi Calm Calm - N/A   Clear
10:53 AM 52.0 °F - 39.9 °F 63% 30.27 in 10.0 mi Variable 5.8 mph - N/A   Clear
11:53 AM 54.0 °F - 39.0 °F 57% 30.25 in 10.0 mi North - - N/A   Clear
12:53 PM 55.9 °F - 39.9 °F 55% 30.23 in 10.0 mi West 6.9 mph - N/A   Clear
1:53 PM 60.1 °F - 37.9 °F 44% 30.22 in 10.0 mi WNW 8.1 mph - N/A   Clear
2:53 PM 62.1 °F - 36.0 °F 38% 30.19 in 10.0 mi NW 6.9 mph - N/A   Clear
3:53 PM 64.0 °F - 34.0 °F 33% 30.16 in 10.0 mi WNW 9.2 mph - N/A   Clear
4:53 PM 66.0 °F - 28.9 °F 25% 30.14 in 10.0 mi North 8.1 mph - N/A   Clear
5:53 PM 64.9 °F - 28.9 °F 26% 30.12 in 10.0 mi North 10.4 mph - N/A   Clear
6:53 PM 64.0 °F - 30.9 °F 29% 30.11 in 10.0 mi Variable 6.9 mph - N/A   Clear
7:53 PM 61.0 °F - 35.1 °F 38% 30.10 in 10.0 mi Variable 3.5 mph - N/A   Clear
8:53 PM 57.9 °F - 39.9 °F 51% 30.11 in 10.0 mi NW 5.8 mph - N/A   Clear
9:53 PM 55.0 °F - 41.0 °F 59% 30.12 in 10.0 mi NNW 6.9 mph - N/A   Clear
10:53 PM 53.1 °F - 39.9 °F 61% 30.12 in 10.0 mi NNW 8.1 mph - N/A   Clear
11:53 PM 51.1 °F - 39.9 °F 66% 30.14 in 10.0 mi NNW 9.2 mph - N/A   Clear